Kuchera_Ratio
0.0 0.0 0.0 0.0 0.0 0.0 0.0 0.0 0.0 0.0 0.0 0.0 0.0 0.0 0.0 0.0 0.0 0.0 0.0 0.0 0.0 0.0 0.0 0.0 0.0 0.0 0.0
0.0 0.0 0.0 0.0 0.0 0.0 0.0 0.0 0.0 0.0 0.0 0.0 0.0 0.0 0.0 0.0 0.0 0.0 0.0 0.0 0.0 0.0 0.0 0.0 0.0 0.0 0.0
1.2 0.0 0.0 0.0 0.0 0.0 0.0 0.0 0.0 0.0 0.0 0.0 0.0 0.0 0.0 0.0 0.0 0.0 0.0 0.0 0.0 0.0 0.0 0.0 0.0 0.0 0.0
2.1 1.7 0.0 0.0 0.0 0.0 0.0 0.0 0.0 0.0 0.0 0.0 0.0 0.0 0.0 0.0 0.0 0.0 0.0 0.0 0.0 0.0 0.0 0.0 0.0 0.0 0.0
4.9 4.8 4.7 3.9 4.7 3.5 3.8 1.3 0.0 0.0 0.0 0.0 0.0 0.0 0.0 0.0 0.0 0.0 0.0 0.0 0.0 0.0 0.0 0.0 0.0 0.0 0.0
8.4 7.8 6.6 6.1 4.7 4.7 5.5 7.4 3.6 0.0 0.6 0.0 0.0 0.0 0.0 0.0 0.0 0.0 0.0 0.0 0.0 0.0 0.0 0.0 0.0 0.0 0.0
6.6 7.3 8.0 5.0 4.9 6.3 6.9 8.1 8.5 2.7 2.0 2.1 0.0 0.0 0.0 0.0 0.0 0.0 0.0 0.0 0.0 0.0 0.0 0.0 0.0 0.0 0.0
5.2 5.4 5.1 3.2 5.0 4.7 5.6 6.4 4.0 2.7 1.5 7.3 1.2 1.3 0.0 0.0 0.0 0.0 0.0 0.0 0.0 0.0 0.0 0.0 0.0 0.0 0.0
0.0 0.0 0.0 0.0 0.0 4.5 9.2 10.4 11.3 7.1 2.8 5.2 3.5 3.6 0.6 0.0 0.0 0.0 0.0 0.0 0.0 0.0 0.0 0.0 0.0 0.0 0.0
5.0 5.5 3.8 5.3 0.0 6.6 9.1 11.5 10.8 12.0 5.1 9.7 6.7 5.6 6.2 0.0 0.0 0.0 0.0 0.0 0.0 0.0 0.0 0.0 0.0 0.0 0.0
6.5 7.1 7.3 7.4 7.4 7.8 8.8 10.4 12.7 12.9 7.5 9.1 9.7 10.2 8.9 7.0 1.6 0.0 0.0 0.0 0.0 0.0 0.0 0.0 0.0 0.0 0.0
10.5 11.2 10.2 9.1 8.5 9.1 9.9 10.3 10.5 10.6 7.5 8.6 10.5 10.1 10.8 10.9 9.5 3.3 1.1 0.0 0.0 0.0 0.0 0.0 0.0 0.0 0.0
11.9 12.1 9.6 9.3 10.6 11.4 10.8 11.1 11.8 10.1 6.8 7.5 8.0 6.8 7.5 10.0 9.8 6.3 5.2 1.4 0.1 0.0 0.0 0.0 0.0 0.0 0.0
11.7 12.0 11.4 11.6 12.2 12.4 13.4 12.7 13.5 12.6 9.8 7.8 8.7 8.3 8.9 7.4 7.5 8.3 5.4 6.5 2.4 0.0 0.0 0.0 0.0 0.0 0.0
12.0 12.3 11.8 12.2 12.6 13.1 13.4 13.8 14.8 14.5 13.5 12.2 10.4 8.8 6.0 6.8 9.4 7.1 6.5 4.8 1.1 0.0 0.3 0.1 0.0 0.0 0.0
13.5 13.9 14.0 14.2 14.5 13.6 14.1 15.5 15.5 14.3 13.6 12.1 11.4 12.4 9.9 6.4 3.3 7.9 6.0 5.2 2.4 1.2 0.0 0.6 1.1 0.0 0.0
14.8 15.5 15.5 15.8 14.1 15.5 15.5 15.4 14.8 13.9 13.6 12.5 12.4 13.2 14.0 14.1 6.0 0.8 7.1 5.4 3.9 2.9 0.4 1.0 0.8 2.2 0.0